Weather History for Limon, CO

Change the Weather History Date:

Monday, May 27, 2013

  Actual Average Record
Temperature  
Mean Temperature 67 °F -  
Max Temperature 84 °F - 91 °F (2006)
Min Temperature 49 °F - 33 °F (2012)
Degree Days  
Heating Degree Days 0    
Month to date heating degree days 297  
Cooling Degree Days 2    
Month to date cooling degree days 13  
Growing Degree Days 15 (Base 50)    
Moisture  
Dew Point 42 °F    
Average Humidity 48    
Maximum Humidity 86    
Minimum Humidity 9    
Precipitation  
Precipitation 0.01 in - 0.14 in (2007)
Month to date precipitation 1.89  
Year to date precipitation 4.39  
Sea Level Pressure  
Sea Level Pressure 29.64 in    
Wind  
Wind Speed 7 mph (NW)    
Max Wind Speed 24 mph    
Max Gust Speed 30 mph    
Visibility 10 miles    
Events Rain , Thunderstorm    
T = Trace of Precipitation, MM = Missing Value Source: NWS Daily Summary

Daily Weather History Graph

Daily Weather History Graph

Search for Another Location

Airport:

Trip Planner

Search our weather history database for the weather conditions in past years. The results will help you decide how hot, cold, wet, or windy it might be!

Date:

Astronomy

May. 27, 2013 Rise Set
Actual Time 5:32 AM MDT 8:11 PM MDT
Civil Twilight 5:01 AM MDT 8:43 PM MDT
Nautical Twilight 4:22 AM MDT 9:22 PM MDT
Astronomical Twilight 3:38 AM MDT 10:06 PM MDT
Moon 10:53 PM MDT (5/27) 8:12 AM MDT (5/27)
Length of Visible Light 15h 42m
Length of Day
14h 39m
Waning Gibbous, 90% of the Moon is Illuminated
May 27
Waning Gibbous
May 31
Last Quarter
Jun 8
New
Jun 16
First Quarter
Jun 23
Full

Hourly Weather History & Observations

Time (MDT) Temp. Dew Point Humidity Pressure Visibility Wind Dir Wind Speed Gust Speed Precip Events Conditions
12:55 AM 55.9 °F 46.9 °F 72% 29.64 in 10.0 mi NW 6.9 mph - N/A   Clear
1:55 AM 55.0 °F 46.9 °F 74% 29.63 in 10.0 mi WNW 8.1 mph - N/A   Clear
2:55 AM 48.9 °F 45.0 °F 86% 29.65 in 10.0 mi NW 4.6 mph - N/A   Clear
3:55 AM 54.0 °F 46.9 °F 77% 29.64 in 10.0 mi WNW 6.9 mph - N/A   Clear
4:55 AM 53.1 °F 46.9 °F 80% 29.65 in 10.0 mi West 9.2 mph - N/A   Clear
5:55 AM 55.0 °F 48.0 °F 77% 29.67 in 10.0 mi West 9.2 mph - N/A   Clear
6:38 AM 60.8 °F 51.8 °F 72% 29.91 in 10.0 mi West 13.8 mph 24.2 mph N/A Thunderstorm Scattered Clouds
6:55 AM 61.0 °F 54.0 °F 78% 29.70 in 10.0 mi WNW 8.1 mph - 0.00 in Rain , Thunderstorm Light Thunderstorms and Rain
7:02 AM 60.8 °F 55.4 °F 82% 29.91 in 10.0 mi ENE 5.8 mph - 0.00 in Rain Light Rain
7:55 AM 68.0 °F 43.0 °F 40% 29.64 in 10.0 mi Calm Calm - 0.01 in   Clear
8:55 AM 72.0 °F 43.0 °F 35% 29.65 in 10.0 mi West 6.9 mph - N/A   Clear
9:55 AM 75.9 °F 39.9 °F 27% 29.65 in 10.0 mi West 6.9 mph - N/A   Clear
10:55 AM 77.0 °F 37.9 °F 24% 29.64 in 10.0 mi Calm Calm - N/A   Clear
11:55 AM 79.0 °F 34.0 °F 20% 29.61 in 10.0 mi Variable 6.9 mph - N/A   Clear
12:55 PM 80.1 °F 24.1 °F 13% 29.62 in 10.0 mi Variable 4.6 mph - N/A   Clear
1:55 PM 82.0 °F 21.0 °F 10% 29.59 in 10.0 mi WNW 6.9 mph 17.3 mph N/A   Clear
2:55 PM 82.0 °F 19.0 °F 10% 29.59 in 10.0 mi Calm Calm - N/A   Clear
3:55 PM 80.1 °F 18.0 °F 10% 29.57 in 10.0 mi Variable 3.5 mph - N/A   Clear
4:55 PM 75.0 °F 39.9 °F 28% 29.57 in 10.0 mi East 16.1 mph - N/A   Clear
5:55 PM 72.0 °F 44.1 °F 37% 29.58 in 10.0 mi East 19.6 mph - N/A   Clear
6:55 PM 70.0 °F 52.0 °F 53% 29.58 in 10.0 mi ESE 18.4 mph - N/A   Clear
7:55 PM 66.9 °F 51.1 °F 57% 29.57 in 10.0 mi East 9.2 mph - N/A   Clear
8:55 PM 63.0 °F 50.0 °F 63% 29.60 in 10.0 mi East 5.8 mph - N/A   Clear
9:55 PM 61.0 °F 41.0 °F 48% 29.62 in 10.0 mi NNE 13.8 mph - N/A   Partly Cloudy
10:55 PM 59.0 °F 39.9 °F 49% 29.61 in 10.0 mi ESE 4.6 mph - N/A   Partly Cloudy
11:55 PM 57.0 °F 39.9 °F 53% 29.62 in 10.0 mi South 3.5 mph - N/A   Clear